Weather History for Kalispell, MT

Change the Weather History Date:

Friday, July 5, 2013

  Actual Average Record
Temperature  
Mean Temperature 66 °F 62 °F  
Max Temperature 84 °F 78 °F 99 °F (1896)
Min Temperature 47 °F 47 °F 32 °F (2000)
Degree Days  
Heating Degree Days 0 4  
Month to date heating degree days 0 21  
Since 1 June heating degree days 186 237  
Since 1 July heating degree days 0 21  
Cooling Degree Days 1 1  
Month to date cooling degree days 35 5  
Year to date cooling degree days 54 21  
Since 1 June cooling degree days 54 18  
Growing Degree Days 16 (Base 50)    
Moisture  
Dew Point 46 °F    
Average Humidity 54    
Maximum Humidity 86    
Minimum Humidity 22    
Precipitation  
Precipitation 0.00 in 0.06 in 0.87 in (1990)
Month to date precipitation 0.00 0.32  
Year to date precipitation 9.01 9.49  
Snow  
Snow 0.00 in - - ()
Month to date snowfall 0.0  
Year to date snowfall 10.1  
Since 1 July snowfall 0.0  
Snow Depth 0.00 in    
Sea Level Pressure  
Sea Level Pressure 29.78 in    
Wind  
Wind Speed 4 mph (South)    
Max Wind Speed 17 mph    
Max Gust Speed 24 mph    
Visibility 10 miles    
Events      
T = Trace of Precipitation, MM = Missing Value Source: NWS Daily Summary

Daily Weather History Graph

Daily Weather History Graph

Search for Another Location

Airport:

Trip Planner

Search our weather history database for the weather conditions in past years. The results will help you decide how hot, cold, wet, or windy it might be!

Date:

Astronomy

Jul. 05, 2013 Rise Set
Actual Time 5:43 AM MDT 9:39 PM MDT
Civil Twilight 5:02 AM MDT 10:20 PM MDT
Nautical Twilight 4:05 AM MDT 11:17 PM MDT
Astronomical Twilight 2:33 AM MDT 12:47 AM MDT
Moon 3:50 AM MDT (7/5) 7:33 PM MDT (7/5)
Length of Visible Light 17h 18m
Length of Day
15h 56m
Waning Crescent, 6% of the Moon is Illuminated
Jul 5
Waning Crescent
Jul 8
New
Jul 15
First Quarter
Jul 22
Full
Jul 29
Last Quarter

Hourly Weather History & Observations

Time (MDT) Temp. Dew Point Humidity Pressure Visibility Wind Dir Wind Speed Gust Speed Precip Events Conditions
12:55 AM 54.0 °F 46.9 °F 77% 29.79 in 8.0 mi Calm Calm - N/A   Clear
1:55 AM 53.1 °F 46.0 °F 77% 29.78 in 9.0 mi NNE 3.5 mph - N/A   Clear
2:55 AM 50.0 °F 45.0 °F 83% 29.80 in 10.0 mi Calm Calm - N/A   Clear
3:55 AM 50.0 °F 46.0 °F 86% 29.80 in 10.0 mi Calm Calm - N/A   Clear
4:55 AM 50.0 °F 46.0 °F 86% 29.79 in 10.0 mi NE 3.5 mph - N/A   Clear
5:55 AM 48.0 °F 45.0 °F 89% 29.81 in 10.0 mi Calm Calm - N/A   Clear
6:55 AM 53.1 °F 48.0 °F 83% 29.81 in 10.0 mi Calm Calm - N/A   Mostly Cloudy
7:55 AM 57.0 °F 50.0 °F 77% 29.82 in 10.0 mi West 3.5 mph - N/A   Overcast
8:55 AM 66.0 °F 50.0 °F 56% 29.82 in 10.0 mi Calm Calm - N/A   Overcast
9:55 AM 69.1 °F 48.9 °F 49% 29.82 in 10.0 mi Variable 3.5 mph - N/A   Clear
10:55 AM 73.0 °F 48.0 °F 41% 29.82 in 10.0 mi Variable 4.6 mph - N/A   Clear
11:55 AM 75.0 °F 46.0 °F 36% 29.81 in 10.0 mi South 6.9 mph - N/A   Clear
12:55 PM 78.1 °F 45.0 °F 31% 29.80 in 10.0 mi SSE 5.8 mph - N/A   Clear
1:55 PM 79.0 °F 46.0 °F 31% 29.78 in 10.0 mi ESE 8.1 mph - N/A   Clear
2:55 PM 81.0 °F 44.1 °F 27% 29.76 in 10.0 mi SSE 8.1 mph - N/A   Clear
3:55 PM 82.0 °F 44.1 °F 26% 29.74 in 10.0 mi SE 9.2 mph - N/A   Clear
4:55 PM 81.0 °F 41.0 °F 24% 29.72 in 10.0 mi South 8.1 mph - N/A   Clear
5:55 PM 84.0 °F 41.0 °F 22% 29.70 in 10.0 mi Variable 3.5 mph - N/A   Partly Cloudy
6:55 PM 82.0 °F 42.1 °F 24% 29.69 in 10.0 mi Calm Calm - N/A   Partly Cloudy
7:55 PM 81.0 °F 46.0 °F 29% 29.69 in 10.0 mi WNW 11.5 mph - N/A   Mostly Cloudy
8:55 PM 73.9 °F 43.0 °F 33% 29.71 in 10.0 mi WNW 10.4 mph 17.3 mph N/A   Clear
9:55 PM 66.0 °F 45.0 °F 47% 29.77 in 10.0 mi North 8.1 mph - N/A   Clear
10:55 PM 64.0 °F 44.1 °F 48% 29.79 in 10.0 mi WNW 4.6 mph - N/A   Clear
11:55 PM 61.0 °F 45.0 °F 56% 29.83 in 10.0 mi Calm Calm - N/A   Clear